Location: River House Observatory
(37.8577°N, 76.3548°W)
Time: 00:05:08
(UTC-04:00)

NOSS 3-1 (C) - Visible Passes

Search period start: 21 September 2014 00:00
Search period end: 01 October 2014 00:00
Orbit: 897 x 1312 km, 63.4° (Epoch: 26 August)

Date Brightness Start Highest point End Pass type
(mag) Time Alt. Az. Time Alt. Az. Time Alt. Az.
21 Sep 5.5 05:25:24 10° SSE 05:30:13 26° ESE 05:35:18 10° NE visible
22 Sep 6.0 04:42:32 10° SE 04:45:29 14° ESE 04:48:30 10° ENE visible
23 Sep 4.0 05:44:17 10° SSW 05:50:10 61° ESE 05:56:33 10° NE visible
24 Sep 4.8 04:59:51 10° S 05:05:13 35° ESE 05:10:55 10° NE visible
25 Sep 5.6 04:16:13 10° SSE 04:20:24 20° ESE 04:24:46 10° ENE visible
25 Sep 3.6 06:04:33 10° SW 06:10:31 62° NW 06:17:03 10° NNE visible
26 Sep 3.5 05:20:44 18° SSW 05:25:18 81° ESE 05:31:50 10° NE visible
27 Sep 4.2 04:37:45 31° SSE 04:40:15 48° ESE 04:46:23 10° NE visible
27 Sep 4.4 06:25:56 10° WSW 06:31:19 31° NW 06:37:08 10° NNE visible
28 Sep 4.9 03:54:40 27° ESE 03:55:21 27° ESE 04:00:34 10° NE visible
28 Sep 3.8 05:42:07 22° WSW 05:45:48 48° NW 05:52:10 10° NNE visible
29 Sep 5.8 03:11:29 15° E 03:11:29 15° E 03:13:56 10° ENE visible
29 Sep 3.3 04:58:55 53° SW 05:00:28 77° WNW 05:07:03 10° NNE visible
30 Sep 3.7 04:15:39 63° E 04:15:39 63° E 04:21:44 10° NE visible
30 Sep 4.7 06:03:05 15° W 06:06:45 25° NW 06:12:08 10° NNE visible
